When you browse on this site, cookies collect data to enhance your experience and personalize the content and advertising you see.
Visit our Privacy Policy to learn more. By continuing to use the site, you agree to this use of cookies and data.
  • Em Portugal
  • Lista de países
  • Para 7 dias
  • Temperatura da água
  • Mapa do tempo
  • Widgets de tempo
  • user-avatar
    Iniciar Sessão

    Previsão horária em Olot

    Hoje, 19 Novembro, Terça-feira

    Tempo Temperatura Precipitação Vento Pressão Humidade
    00:00 +3°C° 0 mm 2 m/s 720 mmHg 64%
    01:00 +2°C° 0 mm 2 m/s 720 mmHg 64%
    02:00 +2°C° 0 mm 2 m/s 720 mmHg 63%
    03:00 +3°C° 0 mm 1 m/s 720 mmHg 62%
    04:00 +3°C° 0 mm 1 m/s 720 mmHg 61%
    05:00 +3°C° 0 mm 1 m/s 720 mmHg 60%
    06:00 +3°C° 0 mm 1 m/s 720 mmHg 59%
    07:00 +4°C° 0 mm 1 m/s 720 mmHg 53%
    08:00 +6°C° 0 mm 1 m/s 721 mmHg 48%
    09:00 +7°C° 0 mm 0 m/s 721 mmHg 43%
    10:00 +9°C° 0 mm 1 m/s 721 mmHg 43%
    11:00 +11°C° 0 mm 1 m/s 721 mmHg 43%
    12:00 +12°C° 0 mm 1 m/s 721 mmHg 43%
    13:00 +11°C° 0 mm 1 m/s 721 mmHg 47%
    14:00 +10°C° 0 mm 2 m/s 720 mmHg 50%
    15:00 +9°C° 0 mm 2 m/s 720 mmHg 53%
    16:00 +8°C° 0 mm 1 m/s 720 mmHg 60%
    17:00 +7°C° 0 mm 1 m/s 720 mmHg 67%
    18:00 +4°C° 0 mm 0 m/s 720 mmHg 74%
    19:00 +5°C° 0 mm 1 m/s 720 mmHg 75%
    20:00 +4°C° 0 mm 1 m/s 720 mmHg 75%
    21:00 +4°C° 0 mm 1 m/s 720 mmHg 76%
    22:00 +4°C° 0 mm 1 m/s 720 mmHg 75%
    23:00 +4°C° 0 mm 1 m/s 720 mmHg 74%

    Amanhã, 20 Novembro, Quarta-feira

    Tempo Temperatura Precipitação Vento Pressão Humidade
    00:00 +3°C° 0 mm 1 m/s 720 mmHg 73%
    01:00 +3°C° 0 mm 1 m/s 720 mmHg 73%
    02:00 +3°C° 0 mm 1 m/s 720 mmHg 73%
    03:00 +3°C° 0 mm 1 m/s 719 mmHg 74%
    04:00 +3°C° 0 mm 1 m/s 719 mmHg 73%
    05:00 +3°C° 0 mm 1 m/s 719 mmHg 73%
    06:00 +3°C° 0 mm 1 m/s 719 mmHg 72%
    07:00 +4°C° 0 mm 1 m/s 719 mmHg 67%
    08:00 +6°C° 0 mm 1 m/s 719 mmHg 61%
    09:00 +8°C° 0 mm 1 m/s 719 mmHg 56%
    10:00 +9°C° 0 mm 1 m/s 719 mmHg 53%
    11:00 +9°C° 0 mm 2 m/s 719 mmHg 50%
    12:00 +10°C° 0 mm 2 m/s 719 mmHg 47%
    13:00 +10°C° 0 mm 2 m/s 718 mmHg 51%
    14:00 +9°C° 0 mm 2 m/s 718 mmHg 54%
    15:00 +9°C° 0 mm 2 m/s 718 mmHg 58%
    16:00 +7°C° 0 mm 2 m/s 718 mmHg 65%
    17:00 +6°C° 0 mm 2 m/s 717 mmHg 72%
    18:00 +4°C° 0 mm 2 m/s 717 mmHg 79%
    19:00 +4°C° 0 mm 2 m/s 717 mmHg 79%
    20:00 +4°C° 0 mm 2 m/s 717 mmHg 78%
    21:00 +4°C° 0 mm 2 m/s 717 mmHg 78%
    22:00 +4°C° 0 mm 2 m/s 717 mmHg 78%
    23:00 +3°C° 0 mm 2 m/s 717 mmHg 78%

    Depois de amanhã, 21 Novembro, Quinta-feira

    Tempo Temperatura Precipitação Vento Pressão Humidade
    00:00 +3°C° 0 mm 2 m/s 716 mmHg 78%
    01:00 +4°C° 0 mm 2 m/s 716 mmHg 78%
    02:00 +4°C° 0 mm 2 m/s 716 mmHg 78%
    03:00 +4°C° 0 mm 2 m/s 716 mmHg 78%
    04:00 +4°C° 0 mm 2 m/s 716 mmHg 79%
    05:00 +4°C° 0 mm 2 m/s 715 mmHg 79%
    06:00 +6°C° 0 mm 1 m/s 715 mmHg 79%
    07:00 +7°C° 0 mm 1 m/s 716 mmHg 75%
    08:00 +8°C° 0 mm 1 m/s 716 mmHg 71%
    09:00 +9°C° 0 mm 1 m/s 716 mmHg 66%
    10:00 +10°C° 0 mm 1 m/s 716 mmHg 63%
    11:00 +10°C° 0 mm 2 m/s 716 mmHg 60%
    12:00 +13°C° 0 mm 2 m/s 716 mmHg 57%
    13:00 +12°C° 0 mm 2 m/s 716 mmHg 60%
    14:00 +12°C° 0 mm 2 m/s 716 mmHg 63%
    15:00 +12°C° 0 mm 2 m/s 716 mmHg 66%
    16:00 +9°C° 0 mm 2 m/s 716 mmHg 71%
    17:00 +9°C° 0 mm 1 m/s 716 mmHg 77%
    18:00 +7°C° 0 mm 1 m/s 716 mmHg 83%
    19:00 +7°C° 0 mm 1 m/s 716 mmHg 83%
    20:00 +7°C° 0 mm 1 m/s 717 mmHg 82%
    21:00 +7°C° 0 mm 1 m/s 717 mmHg 82%
    22:00 +6°C° 0 mm 1 m/s 717 mmHg 82%
    23:00 +6°C° 0 mm 1 m/s 717 mmHg 82%

    22 Novembro, Sexta-feira

    Tempo Temperatura Precipitação Vento Pressão Humidade
    00:00 +6°C° 0 mm 1 m/s 717 mmHg 82%
    01:00 +5°C° 0 mm 2 m/s 716 mmHg 81%
    02:00 +4°C° 0 mm 2 m/s 716 mmHg 81%
    03:00 +4°C° 0 mm 2 m/s 715 mmHg 80%
    04:00 +4°C° 0 mm 2 m/s 715 mmHg 80%
    05:00 +4°C° 0 mm 2 m/s 715 mmHg 80%
    06:00 +4°C° 0 mm 2 m/s 715 mmHg 80%
    07:00 +6°C° 0 mm 2 m/s 715 mmHg 76%
    08:00 +7°C° 0 mm 2 m/s 715 mmHg 72%
    09:00 +9°C° 0 mm 3 m/s 715 mmHg 67%
    10:00 +10°C° 0 mm 4 m/s 715 mmHg 67%
    11:00 +10°C° 0 mm 4 m/s 714 mmHg 67%
    12:00 +10°C° 0 mm 5 m/s 714 mmHg 66%
    13:00 +10°C° 0.2 mm 4 m/s 713 mmHg 74%
    14:00 +10°C° 0.2 mm 4 m/s 712 mmHg 82%
    15:00 +9°C° 0.2 mm 3 m/s 711 mmHg 89%
    16:00 +9°C° 0.6 mm 3 m/s 711 mmHg 91%
    17:00 +9°C° 0.6 mm 3 m/s 711 mmHg 94%
    18:00 +9°C° 0.6 mm 3 m/s 710 mmHg 96%
    19:00 +9°C° 0.5 mm 3 m/s 710 mmHg 96%
    20:00 +10°C° 0.5 mm 3 m/s 710 mmHg 96%
    21:00 +10°C° 0.5 mm 2 m/s 710 mmHg 96%
    22:00 +9°C° 0 mm 2 m/s 709 mmHg 95%
    23:00 +9°C° 0 mm 2 m/s 709 mmHg 95%

    23 Novembro, Sábado

    Tempo Temperatura Precipitação Vento Pressão Humidade
    00:00 +8°C° 0 mm 2 m/s 709 mmHg 94%
    01:00 +9°C° 0 mm 1 m/s 709 mmHg 93%
    02:00 +9°C° 0 mm 1 m/s 709 mmHg 93%
    03:00 +8°C° 0 mm 1 m/s 709 mmHg 92%
    04:00 +8°C° 0 mm 1 m/s 709 mmHg 91%
    05:00 +8°C° 0 mm 1 m/s 709 mmHg 91%
    06:00 +8°C° 0 mm 1 m/s 710 mmHg 90%
    07:00 +9°C° 0 mm 1 m/s 710 mmHg 88%
    08:00 +10°C° 0 mm 1 m/s 710 mmHg 87%
    09:00 +9°C° 0 mm 0 m/s 711 mmHg 86%
    10:00 +10°C° 0.6 mm 1 m/s 711 mmHg 86%
    11:00 +11°C° 0.6 mm 1 m/s 711 mmHg 86%
    12:00 +10°C° 0.6 mm 2 m/s 711 mmHg 86%
    13:00 +9°C° 1.4 mm 2 m/s 711 mmHg 86%
    14:00 +8°C° 1.4 mm 2 m/s 712 mmHg 86%
    15:00 +7°C° 1.4 mm 2 m/s 712 mmHg 85%
    16:00 +6°C° 0.2 mm 2 m/s 712 mmHg 85%
    17:00 +6°C° 0.2 mm 2 m/s 713 mmHg 85%
    18:00 +5°C° 0.2 mm 2 m/s 714 mmHg 85%
    19:00 +5°C° 0 mm 2 m/s 714 mmHg 85%
    20:00 +5°C° 0 mm 2 m/s 715 mmHg 85%
    21:00 +4°C° 0 mm 2 m/s 716 mmHg 85%
    22:00 +4°C° 0 mm 2 m/s 716 mmHg 84%
    23:00 +4°C° 0 mm 2 m/s 716 mmHg 83%

    24 Novembro, Domingo

    Tempo Temperatura Precipitação Vento Pressão Humidade
    00:00 +4°C° 0 mm 2 m/s 717 mmHg 82%
    01:00 +4°C° 0 mm 2 m/s 717 mmHg 83%
    02:00 +4°C° 0 mm 2 m/s 717 mmHg 83%
    03:00 +4°C° 0 mm 2 m/s 718 mmHg 83%
    04:00 +4°C° 0 mm 2 m/s 718 mmHg 83%
    05:00 +4°C° 0 mm 2 m/s 719 mmHg 83%
    06:00 +4°C° 0 mm 2 m/s 720 mmHg 83%
    07:00 +6°C° 0 mm 2 m/s 721 mmHg 80%
    08:00 +9°C° 0 mm 1 m/s 722 mmHg 77%
    09:00 +10°C° 0 mm 1 m/s 723 mmHg 73%
    10:00 +12°C° 0 mm 1 m/s 723 mmHg 68%
    11:00 +13°C° 0 mm 1 m/s 723 mmHg 62%
    12:00 +15°C° 0 mm 1 m/s 723 mmHg 56%
    13:00 +14°C° 0 mm 1 m/s 723 mmHg 59%
    14:00 +14°C° 0 mm 1 m/s 723 mmHg 62%
    15:00 +13°C° 0 mm 1 m/s 723 mmHg 65%
    16:00 +12°C° 0 mm 1 m/s 723 mmHg 70%
    17:00 +10°C° 0 mm 1 m/s 723 mmHg 75%
    18:00 +8°C° 0 mm 1 m/s 723 mmHg 79%
    19:00 +8°C° 0 mm 1 m/s 723 mmHg 79%
    20:00 +8°C° 0 mm 1 m/s 723 mmHg 78%
    21:00 +8°C° 0 mm 1 m/s 723 mmHg 77%
    22:00 +7°C° 0 mm 1 m/s 723 mmHg 76%
    23:00 +7°C° 0 mm 1 m/s 723 mmHg 75%
    Mostrar mais